Year,Month,Day,Hour,Minute,Value (Times are PST for temperature in C)
2012,10,07,00,00,8.20
2012,10,07,00,01,8.20
2012,10,07,00,02,8.20
2012,10,07,00,03,8.20
2012,10,07,00,04,8.20
2012,10,07,00,05,8.20
2012,10,07,00,06,8.20
2012,10,07,00,07,8.20
2012,10,07,00,08,8.20
2012,10,07,00,09,8.20
2012,10,07,00,10,8.10
2012,10,07,00,11,8.10
2012,10,07,00,12,8.10
2012,10,07,00,13,8.10
2012,10,07,00,14,8.10
2012,10,07,00,15,8.00
2012,10,07,00,16,8.00
2012,10,07,00,17,8.00
2012,10,07,00,18,8.00
2012,10,07,00,19,7.90
2012,10,07,00,20,7.90
2012,10,07,00,21,7.90
2012,10,07,00,22,7.80
2012,10,07,00,23,7.80
2012,10,07,00,24,7.80
2012,10,07,00,25,7.80
2012,10,07,00,26,7.80
2012,10,07,00,27,7.80
2012,10,07,00,28,7.80
2012,10,07,00,29,7.80
2012,10,07,00,30,7.70
2012,10,07,00,31,7.70
2012,10,07,00,32,7.70
2012,10,07,00,33,7.60
2012,10,07,00,34,7.60
2012,10,07,00,35,7.60
2012,10,07,00,36,7.60
2012,10,07,00,37,7.50
2012,10,07,00,38,7.50
2012,10,07,00,39,7.50
2012,10,07,00,40,7.50
2012,10,07,00,41,7.40
2012,10,07,00,42,7.40
2012,10,07,00,43,7.40
2012,10,07,00,44,7.30
2012,10,07,00,45,7.30
2012,10,07,00,46,7.30
2012,10,07,00,47,7.30
2012,10,07,00,48,7.30
2012,10,07,00,49,7.30
2012,10,07,00,50,7.30
2012,10,07,00,51,7.30
2012,10,07,00,52,7.20
2012,10,07,00,53,7.20
2012,10,07,00,54,7.20
2012,10,07,00,55,7.20
2012,10,07,00,56,7.20
2012,10,07,00,57,7.20
2012,10,07,00,58,7.20
2012,10,07,00,59,7.20
2012,10,07,01,00,7.20
2012,10,07,01,01,7.20
2012,10,07,01,02,7.20
2012,10,07,01,03,7.20
2012,10,07,01,04,7.20
2012,10,07,01,05,7.20
2012,10,07,01,06,7.20
2012,10,07,01,07,7.20
2012,10,07,01,08,7.20
2012,10,07,01,09,7.20
2012,10,07,01,10,7.30
2012,10,07,01,11,7.30
2012,10,07,01,12,7.30
2012,10,07,01,13,7.30
2012,10,07,01,14,7.30
2012,10,07,01,15,7.30
2012,10,07,01,16,7.30
2012,10,07,01,17,7.30
2012,10,07,01,18,7.30
2012,10,07,01,19,7.30
2012,10,07,01,20,7.30
2012,10,07,01,21,7.20
2012,10,07,01,22,7.20
2012,10,07,01,23,7.20
2012,10,07,01,24,7.20
2012,10,07,01,25,7.20
2012,10,07,01,26,7.20
2012,10,07,01,27,7.20
2012,10,07,01,28,7.20
2012,10,07,01,29,7.20
2012,10,07,01,30,7.20
2012,10,07,01,31,7.20
2012,10,07,01,32,7.20
2012,10,07,01,33,7.20
2012,10,07,01,34,7.20
2012,10,07,01,35,7.20
2012,10,07,01,36,7.10
2012,10,07,01,37,7.10
2012,10,07,01,38,7.10
2012,10,07,01,39,7.10
2012,10,07,01,40,7.10
2012,10,07,01,41,7.10
2012,10,07,01,42,7.00
2012,10,07,01,43,7.00
2012,10,07,01,44,7.00
2012,10,07,01,45,7.00
2012,10,07,01,46,7.00
2012,10,07,01,47,6.90
2012,10,07,01,48,6.90
2012,10,07,01,49,6.90
2012,10,07,01,50,6.90
2012,10,07,01,51,6.90
2012,10,07,01,52,6.90
2012,10,07,01,53,6.90
2012,10,07,01,54,6.90
2012,10,07,01,55,6.90
2012,10,07,01,56,6.90
2012,10,07,01,57,6.90
2012,10,07,01,58,6.90
2012,10,07,01,59,6.80
2012,10,07,02,00,6.80
2012,10,07,02,01,6.80
2012,10,07,02,02,6.80
2012,10,07,02,03,6.80
2012,10,07,02,04,6.80
2012,10,07,02,05,6.80
2012,10,07,02,06,6.70
2012,10,07,02,07,6.70
2012,10,07,02,08,6.70
2012,10,07,02,09,6.70
2012,10,07,02,10,6.70
2012,10,07,02,11,6.70
2012,10,07,02,12,6.60
2012,10,07,02,13,6.60
2012,10,07,02,14,6.60
2012,10,07,02,15,6.60
2012,10,07,02,16,6.60
2012,10,07,02,17,6.60
2012,10,07,02,18,6.60
2012,10,07,02,19,6.60
2012,10,07,02,20,6.60
2012,10,07,02,21,6.60
2012,10,07,02,22,6.60
2012,10,07,02,23,6.50
2012,10,07,02,24,6.40
2012,10,07,02,25,6.40
2012,10,07,02,26,6.40
2012,10,07,02,27,6.40
2012,10,07,02,28,6.40
2012,10,07,02,29,6.40
2012,10,07,02,30,6.40
2012,10,07,02,31,6.40
2012,10,07,02,32,6.40
2012,10,07,02,33,6.40
2012,10,07,02,34,6.40
2012,10,07,02,35,6.40
2012,10,07,02,36,6.40
2012,10,07,02,37,6.40
2012,10,07,02,38,6.40
2012,10,07,02,39,6.40
2012,10,07,02,40,6.40
2012,10,07,02,41,6.40
2012,10,07,02,42,6.40
2012,10,07,02,43,6.40
2012,10,07,02,44,6.40
2012,10,07,02,45,6.40
2012,10,07,02,46,6.40
2012,10,07,02,47,6.40
2012,10,07,02,48,6.40
2012,10,07,02,49,6.40
2012,10,07,02,50,6.40
2012,10,07,02,51,6.40
2012,10,07,02,52,6.40
2012,10,07,02,53,6.40
2012,10,07,02,54,6.40
2012,10,07,02,55,6.40
2012,10,07,02,56,6.40
2012,10,07,02,57,6.40
2012,10,07,02,58,6.40
2012,10,07,02,59,6.40
2012,10,07,03,00,6.40
2012,10,07,03,01,6.40
2012,10,07,03,02,6.30
2012,10,07,03,03,6.30
2012,10,07,03,04,6.30
2012,10,07,03,05,6.30
2012,10,07,03,06,6.30
2012,10,07,03,07,6.30
2012,10,07,03,08,6.30
2012,10,07,03,09,6.30
2012,10,07,03,10,6.30
2012,10,07,03,11,6.30
2012,10,07,03,12,6.30
2012,10,07,03,13,6.30
2012,10,07,03,14,6.30
2012,10,07,03,15,6.30
2012,10,07,03,16,6.30
2012,10,07,03,17,6.30
2012,10,07,03,18,6.30
2012,10,07,03,19,6.30
2012,10,07,03,20,6.30
2012,10,07,03,21,6.30
2012,10,07,03,22,6.20
2012,10,07,03,23,6.20
2012,10,07,03,24,6.20
2012,10,07,03,25,6.20
2012,10,07,03,26,6.20
2012,10,07,03,27,6.20
2012,10,07,03,28,6.20
2012,10,07,03,29,6.20
2012,10,07,03,30,6.20
2012,10,07,03,31,6.10
2012,10,07,03,32,6.10
2012,10,07,03,33,6.10
2012,10,07,03,34,6.10
2012,10,07,03,35,6.00
2012,10,07,03,36,6.00
2012,10,07,03,37,6.00
2012,10,07,03,38,6.00
2012,10,07,03,39,6.00
2012,10,07,03,40,6.00
2012,10,07,03,41,5.90
2012,10,07,03,42,5.90
2012,10,07,03,43,5.90
2012,10,07,03,44,5.90
2012,10,07,03,45,5.90
2012,10,07,03,46,5.90
2012,10,07,03,47,5.90
2012,10,07,03,48,5.90
2012,10,07,03,49,5.90
2012,10,07,03,50,5.90
2012,10,07,03,51,5.90
2012,10,07,03,52,5.90
2012,10,07,03,53,5.80
2012,10,07,03,54,5.80
2012,10,07,03,55,5.80
2012,10,07,03,56,5.80
2012,10,07,03,57,5.80
2012,10,07,03,58,5.80
2012,10,07,03,59,5.90
2012,10,07,04,00,5.90
2012,10,07,04,01,5.90
2012,10,07,04,02,5.90
2012,10,07,04,03,5.90
2012,10,07,04,04,6.00
2012,10,07,04,05,6.00
2012,10,07,04,06,6.00
2012,10,07,04,07,6.00
2012,10,07,04,08,6.00
2012,10,07,04,09,6.00
2012,10,07,04,10,6.00
2012,10,07,04,11,6.00
2012,10,07,04,12,6.00
2012,10,07,04,13,5.90
2012,10,07,04,14,5.90
2012,10,07,04,15,5.90
2012,10,07,04,16,5.90
2012,10,07,04,17,5.90
2012,10,07,04,18,6.00
2012,10,07,04,19,6.00
2012,10,07,04,20,6.00
2012,10,07,04,21,6.00
2012,10,07,04,22,6.00
2012,10,07,04,23,6.10
2012,10,07,04,24,6.10
2012,10,07,04,25,6.10
2012,10,07,04,26,6.20
2012,10,07,04,27,6.20
2012,10,07,04,28,6.20
2012,10,07,04,29,6.10
2012,10,07,04,30,6.10
2012,10,07,04,31,6.10
2012,10,07,04,32,6.10
2012,10,07,04,33,6.00
2012,10,07,04,34,6.00
2012,10,07,04,35,6.00
2012,10,07,04,36,6.00
2012,10,07,04,37,6.00
2012,10,07,04,38,6.00
2012,10,07,04,39,6.00
2012,10,07,04,40,6.00
2012,10,07,04,41,6.00
2012,10,07,04,42,6.00
2012,10,07,04,43,6.00
2012,10,07,04,44,6.00
2012,10,07,04,45,6.00
2012,10,07,04,46,6.00
2012,10,07,04,47,6.00
2012,10,07,04,48,6.00
2012,10,07,04,49,6.00
2012,10,07,04,50,6.00
2012,10,07,04,51,6.00
2012,10,07,04,52,6.00
2012,10,07,04,53,6.00
2012,10,07,04,54,5.90
2012,10,07,04,55,5.90
2012,10,07,04,56,5.90
2012,10,07,04,57,5.90
2012,10,07,04,58,5.90
2012,10,07,04,59,5.80
2012,10,07,05,00,5.80
2012,10,07,05,01,5.80
2012,10,07,05,02,5.80
2012,10,07,05,03,5.80
2012,10,07,05,04,5.80
2012,10,07,05,05,5.70
2012,10,07,05,06,5.70
2012,10,07,05,07,5.70
2012,10,07,05,08,5.80
2012,10,07,05,09,5.80
2012,10,07,05,10,5.80
2012,10,07,05,11,5.90
2012,10,07,05,12,5.90
2012,10,07,05,13,5.90
2012,10,07,05,14,5.90
2012,10,07,05,15,5.90
2012,10,07,05,16,5.90
2012,10,07,05,17,5.90
2012,10,07,05,18,6.00
2012,10,07,05,19,6.00
2012,10,07,05,20,6.00
2012,10,07,05,21,6.00
2012,10,07,05,22,6.00
2012,10,07,05,23,6.00
2012,10,07,05,24,6.00
2012,10,07,05,25,6.00
2012,10,07,05,26,6.00
2012,10,07,05,27,6.00
2012,10,07,05,28,6.00
2012,10,07,05,29,6.00
2012,10,07,05,30,6.00
2012,10,07,05,31,6.00
2012,10,07,05,32,6.00
2012,10,07,05,33,6.00
2012,10,07,05,34,6.00
2012,10,07,05,35,6.00
2012,10,07,05,36,6.00
2012,10,07,05,37,6.00
2012,10,07,05,38,6.00
2012,10,07,05,39,6.00
2012,10,07,05,40,6.00
2012,10,07,05,41,5.90
2012,10,07,05,42,5.90
2012,10,07,05,43,5.90
2012,10,07,05,44,5.90
2012,10,07,05,45,5.90
2012,10,07,05,46,5.90
2012,10,07,05,47,5.90
2012,10,07,05,48,5.80
2012,10,07,05,49,5.80
2012,10,07,05,50,5.80
2012,10,07,05,51,5.80
2012,10,07,05,52,5.80
2012,10,07,05,53,5.80
2012,10,07,05,54,5.80
2012,10,07,05,55,5.80
2012,10,07,05,56,5.80
2012,10,07,05,57,5.80
2012,10,07,05,58,5.80
2012,10,07,05,59,5.80
2012,10,07,06,00,5.70
2012,10,07,06,01,5.70
2012,10,07,06,02,5.70
2012,10,07,06,03,5.70
2012,10,07,06,04,5.70
2012,10,07,06,05,5.70
2012,10,07,06,06,5.70
2012,10,07,06,07,5.70
2012,10,07,06,08,5.70
2012,10,07,06,09,5.70
2012,10,07,06,10,5.70
2012,10,07,06,11,5.70
2012,10,07,06,12,5.70
2012,10,07,06,13,5.60
2012,10,07,06,14,5.60
2012,10,07,06,15,5.60
2012,10,07,06,16,5.50
2012,10,07,06,17,5.50
2012,10,07,06,18,5.50
2012,10,07,06,19,5.50
2012,10,07,06,20,5.50
2012,10,07,06,21,5.50
2012,10,07,06,22,5.50
2012,10,07,06,23,5.50
2012,10,07,06,24,5.40
2012,10,07,06,25,5.40
2012,10,07,06,26,5.50
2012,10,07,06,27,5.50
2012,10,07,06,28,5.50
2012,10,07,06,29,5.50
2012,10,07,06,30,5.50
2012,10,07,06,31,5.50
2012,10,07,06,32,5.50
2012,10,07,06,33,5.50
2012,10,07,06,34,5.50
2012,10,07,06,35,5.50
2012,10,07,06,36,5.50
2012,10,07,06,37,5.50
2012,10,07,06,38,5.50
2012,10,07,06,39,5.50
2012,10,07,06,40,5.50
2012,10,07,06,41,5.50
2012,10,07,06,42,5.50
2012,10,07,06,43,5.50
2012,10,07,06,44,5.50
2012,10,07,06,45,5.50
2012,10,07,06,46,5.50
2012,10,07,06,47,5.50
2012,10,07,06,48,5.50
2012,10,07,06,49,5.50
2012,10,07,06,50,5.50
2012,10,07,06,51,5.50
2012,10,07,06,52,5.50
2012,10,07,06,53,5.50
2012,10,07,06,54,5.50
2012,10,07,06,55,5.60
2012,10,07,06,56,5.60
2012,10,07,06,57,5.60
2012,10,07,06,58,5.60
2012,10,07,06,59,5.60
2012,10,07,07,00,5.50
2012,10,07,07,01,5.50
2012,10,07,07,02,5.50
2012,10,07,07,03,5.60
2012,10,07,07,04,5.60
2012,10,07,07,05,5.60
2012,10,07,07,06,5.50
2012,10,07,07,07,5.50
2012,10,07,07,08,5.50
2012,10,07,07,09,5.50
2012,10,07,07,10,5.50
2012,10,07,07,11,5.60
2012,10,07,07,12,5.60
2012,10,07,07,13,5.60
2012,10,07,07,14,5.60
2012,10,07,07,15,5.60
2012,10,07,07,16,5.60
2012,10,07,07,17,5.60
2012,10,07,07,18,5.60
2012,10,07,07,19,5.60
2012,10,07,07,20,5.60
2012,10,07,07,21,5.50
2012,10,07,07,22,5.60
2012,10,07,07,23,5.60
2012,10,07,07,24,5.60
2012,10,07,07,25,5.60
2012,10,07,07,26,5.60
2012,10,07,07,27,5.60
2012,10,07,07,28,5.60
2012,10,07,07,29,5.60
2012,10,07,07,30,5.60
2012,10,07,07,31,5.60
2012,10,07,07,32,5.60
2012,10,07,07,33,5.60
2012,10,07,07,34,5.60
2012,10,07,07,35,5.60
2012,10,07,07,36,5.60
2012,10,07,07,37,5.60
2012,10,07,07,38,5.50
2012,10,07,07,39,5.50
2012,10,07,07,40,5.50
2012,10,07,07,41,5.50
2012,10,07,07,42,5.50
2012,10,07,07,43,5.50
2012,10,07,07,44,5.50
2012,10,07,07,45,5.50
2012,10,07,07,46,5.50
2012,10,07,07,47,5.50
2012,10,07,07,48,5.50
2012,10,07,07,49,5.50
2012,10,07,07,50,5.60
2012,10,07,07,51,5.60
2012,10,07,07,52,5.60
2012,10,07,07,53,5.60
2012,10,07,07,54,5.60
2012,10,07,07,55,5.70
2012,10,07,07,56,5.70
2012,10,07,07,57,5.70
2012,10,07,07,58,5.70
2012,10,07,07,59,5.70
2012,10,07,08,00,5.70
2012,10,07,08,01,5.70
2012,10,07,08,02,5.70
2012,10,07,08,03,5.70
2012,10,07,08,04,5.70
2012,10,07,08,05,5.70
2012,10,07,08,06,5.70
2012,10,07,08,07,5.70
2012,10,07,08,08,5.80
2012,10,07,08,09,5.80
2012,10,07,08,10,5.80
2012,10,07,08,11,5.80
2012,10,07,08,12,5.80
2012,10,07,08,13,5.80
2012,10,07,08,14,5.80
2012,10,07,08,15,5.90
2012,10,07,08,16,5.90
2012,10,07,08,17,6.00
2012,10,07,08,18,6.00
2012,10,07,08,19,6.10
2012,10,07,08,20,6.10
2012,10,07,08,21,6.20
2012,10,07,08,22,6.20
2012,10,07,08,23,6.20
2012,10,07,08,24,6.30
2012,10,07,08,25,6.30
2012,10,07,08,26,6.40
2012,10,07,08,27,6.40
2012,10,07,08,28,6.40
2012,10,07,08,29,6.50
2012,10,07,08,30,6.60
2012,10,07,08,31,6.70
2012,10,07,08,32,6.70
2012,10,07,08,33,6.80
2012,10,07,08,34,6.80
2012,10,07,08,35,6.90
2012,10,07,08,36,7.00
2012,10,07,08,37,7.00
2012,10,07,08,38,7.10
2012,10,07,08,39,7.20
2012,10,07,08,40,7.20
2012,10,07,08,41,7.30
2012,10,07,08,42,7.40
2012,10,07,08,43,7.50
2012,10,07,08,44,7.60
2012,10,07,08,45,7.60
2012,10,07,08,46,7.70
2012,10,07,08,47,7.80
2012,10,07,08,48,7.90
2012,10,07,08,49,8.00
2012,10,07,08,50,8.10
2012,10,07,08,51,8.20
2012,10,07,08,52,8.20
2012,10,07,08,53,8.30
2012,10,07,08,54,8.40
2012,10,07,08,55,8.40
2012,10,07,08,56,8.50
2012,10,07,08,57,8.60
2012,10,07,08,58,8.70
2012,10,07,08,59,8.70
2012,10,07,09,00,8.80
2012,10,07,09,01,8.90
2012,10,07,09,02,9.00
2012,10,07,09,03,9.00
2012,10,07,09,04,9.20
2012,10,07,09,05,9.20
2012,10,07,09,06,9.30
2012,10,07,09,07,9.40
2012,10,07,09,08,9.40
2012,10,07,09,09,9.50
2012,10,07,09,10,9.60
2012,10,07,09,11,9.70
2012,10,07,09,12,9.80
2012,10,07,09,13,9.90
2012,10,07,09,14,10.00
2012,10,07,09,15,10.10
2012,10,07,09,16,10.20
2012,10,07,09,17,10.30
2012,10,07,09,18,10.50
2012,10,07,09,19,10.70
2012,10,07,09,20,10.80
2012,10,07,09,21,11.00
2012,10,07,09,22,11.10
2012,10,07,09,23,11.30
2012,10,07,09,24,11.50
2012,10,07,09,25,11.60
2012,10,07,09,26,11.80
2012,10,07,09,27,12.00
2012,10,07,09,28,12.30
2012,10,07,09,29,12.50
2012,10,07,09,30,12.70
2012,10,07,09,31,12.90
2012,10,07,09,32,13.10
2012,10,07,09,33,13.30
2012,10,07,09,34,13.50
2012,10,07,09,35,13.60
2012,10,07,09,36,13.80
2012,10,07,09,37,13.90
2012,10,07,09,38,14.10
2012,10,07,09,39,14.20
2012,10,07,09,40,14.40
2012,10,07,09,41,14.50
2012,10,07,09,42,14.70
2012,10,07,09,43,14.80
2012,10,07,09,44,14.90
2012,10,07,09,45,15.10
2012,10,07,09,46,15.20
2012,10,07,09,47,15.30
2012,10,07,09,48,15.40
2012,10,07,09,49,15.50
2012,10,07,09,50,15.60
2012,10,07,09,51,15.80
2012,10,07,09,52,15.90
2012,10,07,09,53,16.10
2012,10,07,09,54,16.20
2012,10,07,09,55,16.30
2012,10,07,09,56,16.50
2012,10,07,09,57,16.60
2012,10,07,09,58,16.70
2012,10,07,09,59,16.80
2012,10,07,10,00,16.90
2012,10,07,10,01,16.90
2012,10,07,10,02,17.00
2012,10,07,10,03,17.20
2012,10,07,10,04,17.30
2012,10,07,10,05,17.40
2012,10,07,10,06,17.50
2012,10,07,10,07,17.50
2012,10,07,10,08,17.60
2012,10,07,10,09,17.70
2012,10,07,10,10,17.80
2012,10,07,10,11,17.90
2012,10,07,10,12,18.00
2012,10,07,10,13,18.10
2012,10,07,10,14,18.20
2012,10,07,10,15,18.30
2012,10,07,10,16,18.30
2012,10,07,10,17,18.30
2012,10,07,10,18,18.30
2012,10,07,10,19,18.30
2012,10,07,10,20,18.30
2012,10,07,10,21,18.30
2012,10,07,10,22,18.30
2012,10,07,10,23,18.30
2012,10,07,10,24,18.30
2012,10,07,10,25,18.30
2012,10,07,10,26,18.30
2012,10,07,10,27,18.20
2012,10,07,10,28,18.20
2012,10,07,10,29,18.20
2012,10,07,10,30,18.20
2012,10,07,10,31,18.20
2012,10,07,10,32,18.20
2012,10,07,10,33,18.20
2012,10,07,10,34,18.20
2012,10,07,10,35,18.20
2012,10,07,10,36,18.20
2012,10,07,10,37,18.20
2012,10,07,10,38,18.30
2012,10,07,10,39,18.30
2012,10,07,10,40,18.20
2012,10,07,10,41,18.10
2012,10,07,10,42,17.90
2012,10,07,10,43,17.90
2012,10,07,10,44,17.80
2012,10,07,10,45,17.70
2012,10,07,10,46,17.70
2012,10,07,10,47,17.70
2012,10,07,10,48,17.70
2012,10,07,10,49,17.70
2012,10,07,10,50,17.70
2012,10,07,10,51,17.70
2012,10,07,10,52,17.80
2012,10,07,10,53,17.90
2012,10,07,10,54,17.90
2012,10,07,10,55,17.90
2012,10,07,10,56,18.00
2012,10,07,10,57,18.10
2012,10,07,10,58,18.20
2012,10,07,10,59,18.20
2012,10,07,11,00,18.30
2012,10,07,11,01,18.40
2012,10,07,11,02,18.50
2012,10,07,11,03,18.50
2012,10,07,11,04,18.60
2012,10,07,11,05,18.50
2012,10,07,11,06,18.10
2012,10,07,11,07,17.80
2012,10,07,11,08,17.60
2012,10,07,11,09,17.50
2012,10,07,11,10,17.30
2012,10,07,11,11,17.30
2012,10,07,11,12,17.20
2012,10,07,11,13,17.10
2012,10,07,11,14,17.10
2012,10,07,11,15,17.10
2012,10,07,11,16,17.20
2012,10,07,11,17,17.20
2012,10,07,11,18,17.30
2012,10,07,11,19,17.30
2012,10,07,11,20,17.40
2012,10,07,11,21,17.50
2012,10,07,11,22,17.70
2012,10,07,11,23,17.70
2012,10,07,11,24,17.70
2012,10,07,11,25,17.80
2012,10,07,11,26,17.80
2012,10,07,11,27,17.80
2012,10,07,11,28,17.80
2012,10,07,11,29,17.80
2012,10,07,11,30,17.90
2012,10,07,11,31,17.90
2012,10,07,11,32,18.00
2012,10,07,11,33,18.10
2012,10,07,11,34,18.20
2012,10,07,11,35,18.40
2012,10,07,11,36,18.40
2012,10,07,11,37,18.50
2012,10,07,11,38,18.60
2012,10,07,11,39,18.60
2012,10,07,11,40,18.60
2012,10,07,11,41,18.50
2012,10,07,11,42,18.40
2012,10,07,11,43,18.40
2012,10,07,11,44,18.40
2012,10,07,11,45,18.40
2012,10,07,11,46,18.30
2012,10,07,11,47,18.30
2012,10,07,11,48,18.20
2012,10,07,11,49,18.20
2012,10,07,11,50,18.20
2012,10,07,11,51,18.20
2012,10,07,11,52,18.20
2012,10,07,11,53,18.20
2012,10,07,11,54,18.30
2012,10,07,11,55,18.30
2012,10,07,11,56,18.40
2012,10,07,11,57,18.40
2012,10,07,11,58,18.40
2012,10,07,11,59,18.40
2012,10,07,12,00,18.40
2012,10,07,12,01,18.40
2012,10,07,12,02,18.40
2012,10,07,12,03,18.50
2012,10,07,12,04,18.50
2012,10,07,12,05,18.40
2012,10,07,12,06,18.40
2012,10,07,12,07,18.30
2012,10,07,12,08,18.30
2012,10,07,12,09,18.20
2012,10,07,12,10,18.10
2012,10,07,12,11,18.10
2012,10,07,12,12,18.10
2012,10,07,12,13,18.10
2012,10,07,12,14,18.10
2012,10,07,12,15,18.10
2012,10,07,12,16,18.20
2012,10,07,12,17,18.20
2012,10,07,12,18,18.20
2012,10,07,12,19,18.30
2012,10,07,12,20,18.30
2012,10,07,12,21,18.30
2012,10,07,12,22,18.30
2012,10,07,12,23,18.30
2012,10,07,12,24,18.40
2012,10,07,12,25,18.40
2012,10,07,12,26,18.50
2012,10,07,12,27,18.50
2012,10,07,12,28,18.50
2012,10,07,12,29,18.40
2012,10,07,12,30,18.40
2012,10,07,12,31,18.40
2012,10,07,12,32,18.40
2012,10,07,12,33,18.50
2012,10,07,12,34,18.50
2012,10,07,12,35,18.40
2012,10,07,12,36,18.40
2012,10,07,12,37,18.40
2012,10,07,12,38,18.40
2012,10,07,12,39,18.40
2012,10,07,12,40,18.50
2012,10,07,12,41,18.50
2012,10,07,12,42,18.50
2012,10,07,12,43,18.50
2012,10,07,12,44,18.50
2012,10,07,12,45,18.60
2012,10,07,12,46,18.60
2012,10,07,12,47,18.60
2012,10,07,12,48,18.60
2012,10,07,12,49,18.60
2012,10,07,12,50,18.60
2012,10,07,12,51,18.60
2012,10,07,12,52,18.60
2012,10,07,12,53,18.60
2012,10,07,12,54,18.60
2012,10,07,12,55,18.70
2012,10,07,12,56,18.70
2012,10,07,12,57,18.80
2012,10,07,12,58,18.90
2012,10,07,12,59,19.00
2012,10,07,13,00,19.10
2012,10,07,13,01,19.10
2012,10,07,13,02,19.20
2012,10,07,13,03,19.20
2012,10,07,13,04,19.20
2012,10,07,13,05,19.30
2012,10,07,13,06,19.40
2012,10,07,13,07,19.40
2012,10,07,13,08,19.50
2012,10,07,13,09,19.60
2012,10,07,13,10,19.70
2012,10,07,13,11,19.80
2012,10,07,13,12,19.80
2012,10,07,13,13,19.80
2012,10,07,13,14,19.80
2012,10,07,13,15,19.80
2012,10,07,13,16,19.90
2012,10,07,13,17,19.90
2012,10,07,13,18,20.00
2012,10,07,13,19,19.90
2012,10,07,13,20,19.90
2012,10,07,13,21,19.90
2012,10,07,13,22,19.90
2012,10,07,13,23,19.90
2012,10,07,13,24,19.90
2012,10,07,13,25,19.90
2012,10,07,13,26,19.90
2012,10,07,13,27,20.00
2012,10,07,13,28,20.10
2012,10,07,13,29,20.20
2012,10,07,13,30,20.20
2012,10,07,13,31,20.20
2012,10,07,13,32,20.30
2012,10,07,13,33,20.30
2012,10,07,13,34,20.40
2012,10,07,13,35,20.30
2012,10,07,13,36,20.40
2012,10,07,13,37,20.40
2012,10,07,13,38,20.50
2012,10,07,13,39,20.50
2012,10,07,13,40,20.50
2012,10,07,13,41,20.40
2012,10,07,13,42,20.30
2012,10,07,13,43,20.20
2012,10,07,13,44,20.20
2012,10,07,13,45,20.20
2012,10,07,13,46,20.10
2012,10,07,13,47,19.90
2012,10,07,13,48,19.80
2012,10,07,13,49,19.70
2012,10,07,13,50,19.50
2012,10,07,13,51,19.20
2012,10,07,13,52,19.00
2012,10,07,13,53,18.90
2012,10,07,13,54,18.80
2012,10,07,13,55,18.80
2012,10,07,13,56,18.70
2012,10,07,13,57,18.50
2012,10,07,13,58,18.50
2012,10,07,13,59,18.40
2012,10,07,14,00,18.40
2012,10,07,14,01,18.40
2012,10,07,14,02,18.40
2012,10,07,14,03,18.50
2012,10,07,14,04,18.50
2012,10,07,14,05,18.40
2012,10,07,14,06,18.30
2012,10,07,14,07,18.20
2012,10,07,14,08,18.20
2012,10,07,14,09,18.30
2012,10,07,14,10,18.30
2012,10,07,14,11,18.30
2012,10,07,14,12,18.30
2012,10,07,14,13,18.30
2012,10,07,14,14,18.20
2012,10,07,14,15,18.20
2012,10,07,14,16,18.10
2012,10,07,14,17,18.10
2012,10,07,14,18,18.00
2012,10,07,14,19,17.90
2012,10,07,14,20,17.90
2012,10,07,14,21,17.90
2012,10,07,14,22,17.90
2012,10,07,14,23,17.90
2012,10,07,14,24,17.80
2012,10,07,14,25,17.90
2012,10,07,14,26,17.90
2012,10,07,14,27,17.90
2012,10,07,14,28,17.90
2012,10,07,14,29,18.00
2012,10,07,14,30,17.90
2012,10,07,14,31,17.90
2012,10,07,14,32,17.90
2012,10,07,14,33,17.90
2012,10,07,14,34,18.10
2012,10,07,14,35,18.20
2012,10,07,14,36,18.30
2012,10,07,14,37,18.30
2012,10,07,14,38,18.30
2012,10,07,14,39,18.30
2012,10,07,14,40,18.30
2012,10,07,14,41,18.20
2012,10,07,14,42,18.20
2012,10,07,14,43,18.10
2012,10,07,14,44,18.10
2012,10,07,14,45,18.00
2012,10,07,14,46,17.90
2012,10,07,14,47,17.90
2012,10,07,14,48,17.90
2012,10,07,14,49,17.90
2012,10,07,14,50,17.90
2012,10,07,14,51,17.90
2012,10,07,14,52,18.00
2012,10,07,14,53,18.10
2012,10,07,14,54,18.10
2012,10,07,14,55,18.20
2012,10,07,14,56,18.20
2012,10,07,14,57,18.20
2012,10,07,14,58,18.20
2012,10,07,14,59,18.20
2012,10,07,15,00,18.20
2012,10,07,15,01,18.20
2012,10,07,15,02,18.20
2012,10,07,15,03,18.20
2012,10,07,15,04,18.30
2012,10,07,15,05,18.30
2012,10,07,15,06,18.30
2012,10,07,15,07,18.20
2012,10,07,15,08,18.20
2012,10,07,15,09,18.20
2012,10,07,15,10,18.20
2012,10,07,15,11,18.10
2012,10,07,15,12,18.10
2012,10,07,15,13,18.00
2012,10,07,15,14,18.10
2012,10,07,15,15,18.10
2012,10,07,15,16,18.20
2012,10,07,15,17,18.20
2012,10,07,15,18,18.20
2012,10,07,15,19,18.20
2012,10,07,15,20,18.20
2012,10,07,15,21,18.10
2012,10,07,15,22,18.10
2012,10,07,15,23,18.10
2012,10,07,15,24,18.10
2012,10,07,15,25,18.20
2012,10,07,15,26,18.20
2012,10,07,15,27,18.20
2012,10,07,15,28,18.20
2012,10,07,15,29,18.20
2012,10,07,15,30,18.20
2012,10,07,15,31,18.20
2012,10,07,15,32,18.20
2012,10,07,15,33,18.20
2012,10,07,15,34,18.20
2012,10,07,15,35,18.20
2012,10,07,15,36,18.40
2012,10,07,15,37,18.40
2012,10,07,15,38,18.50
2012,10,07,15,39,18.50
2012,10,07,15,40,18.50
2012,10,07,15,41,18.50
2012,10,07,15,42,18.50
2012,10,07,15,43,18.50
2012,10,07,15,44,18.50
2012,10,07,15,45,18.40
2012,10,07,15,46,18.30
2012,10,07,15,47,18.30
2012,10,07,15,48,18.40
2012,10,07,15,49,18.40
2012,10,07,15,50,18.40
2012,10,07,15,51,18.40
2012,10,07,15,52,18.40
2012,10,07,15,53,18.40
2012,10,07,15,54,18.50
2012,10,07,15,55,18.50
2012,10,07,15,56,18.50
2012,10,07,15,57,18.50
2012,10,07,15,58,18.50
2012,10,07,15,59,18.50
2012,10,07,16,00,18.50
2012,10,07,16,01,18.50
2012,10,07,16,02,18.50
2012,10,07,16,03,18.40
2012,10,07,16,04,18.40
2012,10,07,16,05,18.40
2012,10,07,16,06,18.30
2012,10,07,16,07,18.30
2012,10,07,16,08,18.30
2012,10,07,16,09,18.40
2012,10,07,16,10,18.40
2012,10,07,16,11,18.40
2012,10,07,16,12,18.40
2012,10,07,16,13,18.40
2012,10,07,16,14,18.40
2012,10,07,16,15,18.30
2012,10,07,16,16,18.30
2012,10,07,16,17,18.30
2012,10,07,16,18,18.30
2012,10,07,16,19,18.40
2012,10,07,16,20,18.40
2012,10,07,16,21,18.40
2012,10,07,16,22,18.40
2012,10,07,16,23,18.40
2012,10,07,16,24,18.40
2012,10,07,16,25,18.40
2012,10,07,16,26,18.50
2012,10,07,16,27,18.50
2012,10,07,16,28,18.50
2012,10,07,16,29,18.50
2012,10,07,16,30,18.50
2012,10,07,16,31,18.50
2012,10,07,16,32,18.50
2012,10,07,16,33,18.60
2012,10,07,16,34,18.60
2012,10,07,16,35,18.60
2012,10,07,16,36,18.60
2012,10,07,16,37,18.60
2012,10,07,16,38,18.60
2012,10,07,16,39,18.70
2012,10,07,16,40,18.70
2012,10,07,16,41,18.70
2012,10,07,16,42,18.70
2012,10,07,16,43,18.70
2012,10,07,16,44,18.70
2012,10,07,16,45,18.70
2012,10,07,16,46,18.70
2012,10,07,16,47,18.70
2012,10,07,16,48,18.70
2012,10,07,16,49,18.70
2012,10,07,16,50,18.70
2012,10,07,16,51,18.70
2012,10,07,16,52,18.70
2012,10,07,16,53,18.70
2012,10,07,16,54,18.70
2012,10,07,16,55,18.60
2012,10,07,16,56,18.60
2012,10,07,16,57,18.60
2012,10,07,16,58,18.60
2012,10,07,16,59,18.60
2012,10,07,17,00,18.60
2012,10,07,17,01,18.60
2012,10,07,17,02,18.60
2012,10,07,17,03,18.60
2012,10,07,17,04,18.60
2012,10,07,17,05,18.60
2012,10,07,17,06,18.60
2012,10,07,17,07,18.60
2012,10,07,17,08,18.60
2012,10,07,17,09,18.60
2012,10,07,17,10,18.70
2012,10,07,17,11,18.70
2012,10,07,17,12,18.70
2012,10,07,17,13,18.70
2012,10,07,17,14,18.80
2012,10,07,17,15,18.80
2012,10,07,17,16,18.80
2012,10,07,17,17,18.80
2012,10,07,17,18,18.80
2012,10,07,17,19,18.80
2012,10,07,17,20,18.80
2012,10,07,17,21,18.80
2012,10,07,17,22,18.80
2012,10,07,17,23,18.80
2012,10,07,17,24,18.80
2012,10,07,17,25,18.80
2012,10,07,17,26,18.80
2012,10,07,17,27,18.70
2012,10,07,17,28,18.70
2012,10,07,17,29,18.70
2012,10,07,17,30,18.70
2012,10,07,17,31,18.70
2012,10,07,17,32,18.70
2012,10,07,17,33,18.60
2012,10,07,17,34,18.60
2012,10,07,17,35,18.60
2012,10,07,17,36,18.60
2012,10,07,17,37,18.60
2012,10,07,17,38,18.50
2012,10,07,17,39,18.50
2012,10,07,17,40,18.50
2012,10,07,17,41,18.50
2012,10,07,17,42,18.40
2012,10,07,17,43,18.40